This is the latest recevied weather packets stored in our database for station/object K0SDS. If no packets are shown the sender has not sent any weather packets the latest 10 day(s).
| Time | Temp. | Humidity | Pressure | Rain* | Wind** | Luminosity | Snow |
|---|---|---|---|---|---|---|---|
| 1777845933 | 28.33° C | 36% | 1008 hPa | 0 mm | - | 360 W/m² | - |
| 1777845630 | 28.33° C | 36% | 1007.9 hPa | 0 mm | - | 363 W/m² | - |
| 1777845327 | 28.89° C | 35% | 1007.9 hPa | 0 mm | - | 245 W/m² | - |
| 1777845024 | 28.33° C | 38% | 1008.2 hPa | 0 mm | - | 414 W/m² | - |
| 1777844722 | 27.78° C | 35% | 1008.2 hPa | 0 mm | - | 481 W/m² | - |
| 1777844418 | 27.78° C | 34% | 1008.5 hPa | 0 mm | - | 388 W/m² | - |
| 1777844116 | 28.33° C | 34% | 1008.4 hPa | 0 mm | - | 433 W/m² | - |
| 1777843813 | 28.89° C | 34% | 1008.5 hPa | 0 mm | - | 454 W/m² | - |
| 1777843505 | 28.89° C | 37% | 1008.7 hPa | 0 mm | - | 445 W/m² | - |
| 1777843202 | 28.89° C | 38% | 1008.8 hPa | 0 mm | - | 466 W/m² | - |
| 1777842899 | 28.33° C | 35% | 1008.6 hPa | 0 mm | - | 507 W/m² | - |
| 1777842594 | 28.89° C | 39% | 1008.8 hPa | 0 mm | - | 510 W/m² | - |
| 1777842292 | 28.89° C | 38% | 1009.2 hPa | 0 mm | - | 485 W/m² | - |
| 1777841992 | 28.33° C | 39% | 1009.1 hPa | 0 mm | - | 488 W/m² | - |
| 1777841689 | 28.33° C | 37% | 1009 hPa | 0 mm | - | 506 W/m² | - |
| 1777841385 | 28.33° C | 38% | 1009.2 hPa | 0 mm | - | 534 W/m² | - |
| 1777841083 | 28.33° C | 38% | 1009.2 hPa | 0 mm | - | 557 W/m² | - |
| 1777840779 | 28.33° C | 41% | 1009.5 hPa | 0 mm | - | 553 W/m² | - |
| 1777840477 | 27.78° C | 40% | 1009.6 hPa | 0 mm | - | 529 W/m² | - |
| 1777840173 | 27.78° C | 41% | 1009.6 hPa | 0 mm | - | 583 W/m² | - |
| 1777839871 | 27.78° C | 42% | 1009.6 hPa | 0 mm | - | 597 W/m² | - |
| 1777839565 | 27.22° C | 42% | 1009.5 hPa | 0 mm | - | 531 W/m² | - |
| 1777839261 | 27.22° C | 39% | 1009.8 hPa | 0 mm | - | 579 W/m² | - |
| 1777838959 | 27.78° C | 38% | 1009.5 hPa | 0 mm | - | 528 W/m² | - |
| 1777838655 | 27.78° C | 40% | 1009.5 hPa | 0 mm | - | 510 W/m² | - |
* Rain latest hour (hover to see other rain measurements)
** Current wind speed in m/s (hover to see current wind gust speed)